| time (UTC) | temp C | wind direction | speed KPH | gust KPH | rain 1hr cm | rain 24hr cm | rain mn cm | humidity % | barometer mb |
| 20260902100023 | 14 | 278 | 1.6 | 4.8 | 0.00 | 0.00 | 0.00 | 83 | 997.8 |
| 20260902095531 | 14 | 248 | 0.0 | 4.8 | 0.00 | 0.00 | 0.00 | 83 | 997.9 |
| 20260902095043 | 14 | 250 | 0.0 | 4.8 | 0.00 | 0.00 | 0.00 | 83 | 997.9 |
| 20260902094506 | 14 | 251 | 0.0 | 3.2 | 0.00 | 0.00 | 0.00 | 83 | 997.9 |
| 20260902094014 | 13 | 88 | 0.0 | 3.2 | 0.00 | 0.00 | 0.00 | 83 | 997.9 |
| 20260902093522 | 13 | 88 | 0.0 | 4.8 | 0.00 | 0.00 | 0.00 | 84 | 997.9 |
| 20260902093059 | 13 | 78 | 0.0 | 6.4 | 0.00 | 0.00 | 0.00 | 84 | 998.0 |
| 20260902092601 | 13 | 261 | 1.6 | 11.3 | 0.00 | 0.00 | 0.00 | 84 | 998.0 |
| 20260902092008 | 13 | 184 | 1.6 | 11.3 | 0.00 | 0.00 | 0.00 | 84 | 998.2 |
| 20260902091559 | 13 | 215 | 0.0 | 3.2 | 0.00 | 0.00 | 0.00 | 84 | 998.3 |
| 20260902091039 | 13 | 213 | 0.0 | 0.0 | 0.00 | 0.00 | 0.00 | 84 | 998.3 |
| 20260902090549 | 13 | 210 | 0.0 | 0.0 | 0.00 | 0.00 | 0.00 | 84 | 998.3 |
| 20260902090030 | 13 | 210 | 0.0 | 0.0 | 0.00 | 0.00 | 0.00 | 84 | 998.3 |
| 20260902085525 | 13 | 210 | 0.0 | 0.0 | 0.00 | 0.00 | 0.00 | 83 | 998.5 |
| 20260902085029 | 13 | 210 | 0.0 | 0.0 | 0.00 | 0.00 | 0.00 | 83 | 998.5 |
| 20260902084559 | 13 | 210 | 0.0 | 0.0 | 0.00 | 0.00 | 0.00 | 83 | 998.6 |
| 20260902084002 | 14 | 210 | 0.0 | 0.0 | 0.00 | 0.00 | 0.00 | 82 | 998.6 |
| 20260902083504 | 14 | 210 | 0.0 | 1.6 | 0.00 | 0.00 | 0.00 | 82 | 998.6 |
| 20260902083042 | 14 | 210 | 0.0 | 3.2 | 0.00 | 0.00 | 0.00 | 82 | 998.6 |
| 20260902082546 | 14 | 210 | 0.0 | 3.2 | 0.00 | 0.00 | 0.00 | 82 | 998.6 |
| 20260902082043 | 14 | 210 | 0.0 | 3.2 | 0.00 | 0.00 | 0.00 | 82 | 998.6 |
| 20260902081520 | 14 | 209 | 0.0 | 4.8 | 0.00 | 0.00 | 0.00 | 81 | 998.7 |
| 20260902081025 | 14 | 210 | 0.0 | 4.8 | 0.00 | 0.00 | 0.00 | 81 | 998.7 |
| 20260902080514 | 15 | 271 | 0.0 | 4.8 | 0.00 | 0.00 | 0.00 | 81 | 998.6 |
| 20260902080049 | 15 | 267 | 0.0 | 4.8 | 0.00 | 0.00 | 0.00 | 80 | 998.6 |
| 20260902075551 | 15 | 340 | 0.0 | 1.6 | 0.00 | 0.00 | 0.00 | 80 | 998.6 |
| 20260902075057 | 15 | 340 | 0.0 | 3.2 | 0.00 | 0.00 | 0.00 | 80 | 998.7 |
| 20260902074517 | 15 | 340 | 1.6 | 3.2 | 0.00 | 0.00 | 0.00 | 79 | 998.6 |
| 20260902074031 | 15 | 167 | 0.0 | 3.2 | 0.00 | 0.00 | 0.00 | 79 | 998.6 |
| 20260902073538 | 15 | 167 | 0.0 | 1.6 | 0.00 | 0.00 | 0.00 | 79 | 998.6 |
| 20260902073001 | 15 | 167 | 0.0 | 4.8 | 0.00 | 0.00 | 0.00 | 79 | 998.7 |
| 20260902072508 | 15 | 167 | 0.0 | 1.6 | 0.00 | 0.00 | 0.00 | 79 | 998.7 |
| 20260902072014 | 15 | 32 | 0.0 | 3.2 | 0.00 | 0.00 | 0.00 | 79 | 998.7 |
| 20260902071535 | 16 | 170 | 0.0 | 3.2 | 0.00 | 0.00 | 0.00 | 79 | 998.9 |
| 20260902071035 | 16 | 170 | 0.0 | 4.8 | 0.00 | 0.00 | 0.00 | 79 | 998.8 |
| 20260902070542 | 16 | 170 | 0.0 | 9.7 | 0.00 | 0.00 | 0.00 | 78 | 998.9 |
| 20260902070011 | 16 | 142 | 1.6 | 12.9 | 0.00 | 0.00 | 0.00 | 78 | 999.0 |
| 20260902065520 | 16 | 158 | 6.4 | 12.9 | 0.00 | 0.00 | 0.00 | 78 | 999.1 |
| 20260902065028 | 16 | 232 | 0.0 | 8.0 | 0.00 | 0.00 | 0.00 | 78 | 999.3 |
| 20260902064556 | 16 | 172 | 1.6 | 14.5 | 0.00 | 0.00 | 0.00 | 77 | 999.2 |
| 20260902064004 | 16 | 183 | 3.2 | 16.1 | 0.00 | 0.00 | 0.00 | 77 | 999.3 |
| 20260902063508 | 16 | 213 | 0.0 | 6.4 | 0.00 | 0.00 | 0.00 | 77 | 999.2 |
| 20260902063053 | 16 | 213 | 1.6 | 14.5 | 0.00 | 0.00 | 0.00 | 77 | 999.2 |
| 20260902062555 | 16 | 217 | 3.2 | 14.5 | 0.00 | 0.00 | 0.00 | 77 | 999.2 |
| 20260902062057 | 15 | 172 | 3.2 | 9.7 | 0.00 | 0.00 | 0.00 | 77 | 999.2 |
| 20260902061540 | 15 | 184 | 1.6 | 11.3 | 0.00 | 0.00 | 0.00 | 77 | 999.1 |
| 20260902061042 | 15 | 194 | 1.6 | 11.3 | 0.00 | 0.00 | 0.00 | 77 | 999.2 |
| 20260902060543 | 15 | 264 | 3.2 | 8.0 | 0.00 | 0.00 | 0.00 | 77 | 999.1 |
| 20260902060014 | 15 | 153 | 3.2 | 8.0 | 0.00 | 0.00 | 0.00 | 77 | 999.0 |
| 20260902055528 | 15 | 227 | 1.6 | 6.4 | 0.00 | 0.00 | 0.00 | 77 | 999.2 |
| 20260902055038 | 15 | 100 | 0.0 | 0.0 | 0.00 | 0.00 | 0.00 | 77 | 999.2 |
| 20260902054557 | 15 | 100 | 0.0 | 0.0 | 0.00 | 0.00 | 0.00 | 77 | 999.2 |
| 20260902054003 | 15 | 100 | 0.0 | 0.0 | 0.00 | 0.00 | 0.00 | 77 | 999.2 |
| 20260902053510 | 16 | 228 | 0.0 | 0.0 | 0.00 | 0.00 | 0.00 | 77 | 999.4 |
| 20260902053040 | 15 | 228 | 0.0 | 0.0 | 0.00 | 0.00 | 0.00 | 77 | 999.2 |
| 20260902052547 | 15 | 228 | 0.0 | 0.0 | 0.00 | 0.00 | 0.00 | 77 | 999.4 |
| 20260902052052 | 16 | 228 | 0.0 | 0.0 | 0.00 | 0.00 | 0.00 | 77 | 999.4 |
| 20260902051521 | 16 | 228 | 0.0 | 0.0 | 0.00 | 0.00 | 0.00 | 77 | 999.3 |
| 20260902051026 | 16 | 228 | 0.0 | 0.0 | 0.00 | 0.00 | 0.00 | 76 | 999.2 |
| 20260902050533 | 16 | 228 | 0.0 | 0.0 | 0.00 | 0.00 | 0.00 | 76 | 999.2 |
| 20260902050007 | 16 | 228 | 0.0 | 0.0 | 0.00 | 0.00 | 0.00 | 76 | 999.4 |
| 20260902045510 | 16 | 228 | 0.0 | 0.0 | 0.00 | 0.00 | 0.00 | 76 | 999.5 |
| 20260902045009 | 16 | 228 | 0.0 | 0.0 | 0.00 | 0.00 | 0.00 | 76 | 999.4 |
| 20260902044550 | 16 | 228 | 0.0 | 0.0 | 0.00 | 0.00 | 0.00 | 75 | 999.5 |
| 20260902044050 | 16 | 229 | 0.0 | 0.0 | 0.00 | 0.00 | 0.00 | 75 | 999.6 |
| 20260902043537 | 16 | 229 | 0.0 | 0.0 | 0.00 | 0.00 | 0.00 | 75 | 999.5 |
| 20260902043103 | 16 | 229 | 0.0 | 0.0 | 0.00 | 0.00 | 0.00 | 74 | 999.5 |
| 20260902042507 | 16 | 229 | 0.0 | 0.0 | 0.00 | 0.00 | 0.00 | 74 | 999.5 |
| 20260902042021 | 16 | 229 | 0.0 | 0.0 | 0.00 | 0.00 | 0.00 | 74 | 999.5 |
| 20260902041600 | 16 | 229 | 0.0 | 0.0 | 0.00 | 0.00 | 0.00 | 74 | 999.4 |
| 20260902041101 | 16 | 229 | 0.0 | 0.0 | 0.00 | 0.00 | 0.00 | 73 | 999.5 |
| 20260902040505 | 16 | 235 | 0.0 | 3.2 | 0.00 | 0.00 | 0.00 | 73 | 999.5 |
| 20260902040028 | 16 | 235 | 0.0 | 4.8 | 0.00 | 0.00 | 0.00 | 73 | 999.5 |
| 20260902035534 | 16 | 235 | 1.6 | 4.8 | 0.00 | 0.00 | 0.00 | 72 | 999.5 |
| 20260902035040 | 16 | 154 | 0.0 | 3.2 | 0.00 | 0.00 | 0.00 | 72 | 999.4 |
| 20260902034515 | 16 | 153 | 0.0 | 6.4 | 0.00 | 0.00 | 0.00 | 72 | 999.3 |
| 20260902034023 | 17 | 140 | 0.0 | 6.4 | 0.00 | 0.00 | 0.00 | 71 | 999.3 |
| 20260902033529 | 17 | 255 | 0.0 | 0.0 | 0.00 | 0.00 | 0.00 | 70 | 999.2 |
| 20260902033059 | 17 | 255 | 0.0 | 1.6 | 0.00 | 0.00 | 0.00 | 70 | 999.2 |
| 20260902032506 | 17 | 255 | 0.0 | 3.2 | 0.00 | 0.00 | 0.00 | 70 | 999.1 |
| 20260902032021 | 17 | 284 | 0.0 | 3.2 | 0.00 | 0.00 | 0.00 | 70 | 999.1 |
| 20260902031552 | 17 | 173 | 0.0 | 3.2 | 0.00 | 0.00 | 0.00 | 69 | 999.1 |
| 20260902031055 | 17 | 173 | 0.0 | 4.8 | 0.00 | 0.00 | 0.00 | 69 | 999.1 |
| 20260902030504 | 17 | 173 | 1.6 | 4.8 | 0.00 | 0.00 | 0.00 | 69 | 999.1 |
| 20260902030043 | 17 | 196 | 0.0 | 3.2 | 0.00 | 0.00 | 0.00 | 69 | 999.0 |
| 20260902025549 | 17 | 196 | 0.0 | 4.8 | 0.00 | 0.00 | 0.00 | 69 | 999.0 |
| 20260902025055 | 17 | 196 | 0.0 | 4.8 | 0.00 | 0.00 | 0.00 | 69 | 999.1 |
| 20260902024535 | 17 | 211 | 0.0 | 3.2 | 0.00 | 0.00 | 0.00 | 68 | 999.1 |
| 20260902024041 | 17 | 192 | 0.0 | 4.8 | 0.00 | 0.00 | 0.00 | 68 | 999.1 |
| 20260902023547 | 17 | 191 | 1.6 | 4.8 | 0.00 | 0.00 | 0.00 | 68 | 999.1 |
| 20260902023027 | 18 | 155 | 0.0 | 4.8 | 0.00 | 0.00 | 0.00 | 68 | 999.1 |
| 20260902022538 | 18 | 155 | 1.6 | 4.8 | 0.00 | 0.00 | 0.00 | 68 | 999.1 |
| 20260902022044 | 18 | 286 | 1.6 | 6.4 | 0.00 | 0.00 | 0.00 | 68 | 999.2 |
| 20260902021515 | 18 | 260 | 3.2 | 9.7 | 0.00 | 0.00 | 0.00 | 68 | 999.1 |
| 20260902021027 | 18 | 156 | 0.0 | 12.9 | 0.00 | 0.00 | 0.00 | 67 | 999.1 |
| 20260902020535 | 18 | 230 | 1.6 | 12.9 | 0.00 | 0.00 | 0.00 | 68 | 999.1 |
| 20260902020001 | 18 | 148 | 0.0 | 6.4 | 0.00 | 0.00 | 0.00 | 68 | 999.1 |
| 20260902015509 | 18 | 142 | 1.6 | 6.4 | 0.00 | 0.00 | 0.00 | 68 | 999.0 |
| 20260902015018 | 18 | 146 | 1.6 | 6.4 | 0.00 | 0.00 | 0.00 | 68 | 999.0 |
| 20260902014556 | 18 | 169 | 1.6 | 8.0 | 0.00 | 0.00 | 0.00 | 67 | 999.0 |
| 20260902014059 | 18 | 170 | 0.0 | 8.0 | 0.00 | 0.00 | 0.00 | 66 | 999.0 |
| 20260902013503 | 18 | 143 | 3.2 | 8.0 | 0.00 | 0.00 | 0.00 | 66 | 998.8 |
| 20260902013041 | 18 | 128 | 1.6 | 11.3 | 0.00 | 0.00 | 0.00 | 66 | 998.8 |
| 20260902012548 | 18 | 223 | 1.6 | 11.3 | 0.00 | 0.00 | 0.00 | 66 | 998.8 |
| 20260902012059 | 18 | 290 | 1.6 | 11.3 | 0.00 | 0.00 | 0.00 | 67 | 998.8 |
| 20260902011535 | 19 | 196 | 3.2 | 9.7 | 0.00 | 0.00 | 0.00 | 67 | 998.8 |
| 20260902011049 | 19 | 168 | 3.2 | 8.0 | 0.00 | 0.00 | 0.00 | 68 | 998.7 |
| 20260902010553 | 19 | 246 | 1.6 | 8.0 | 0.00 | 0.00 | 0.00 | 68 | 998.7 |
| 20260902010033 | 18 | 250 | 1.6 | 4.8 | 0.00 | 0.00 | 0.00 | 67 | 998.7 |
| 20260902005533 | 18 | 228 | 0.0 | 3.2 | 0.00 | 0.00 | 0.00 | 67 | 998.7 |
| 20260902005041 | 18 | 149 | 0.0 | 1.6 | 0.00 | 0.00 | 0.00 | 67 | 998.7 |
| 20260902004505 | 18 | 149 | 0.0 | 8.0 | 0.00 | 0.00 | 0.00 | 67 | 998.7 |
| 20260902004022 | 18 | 149 | 1.6 | 8.0 | 0.00 | 0.00 | 0.00 | 67 | 998.7 |
| 20260902003525 | 18 | 246 | 0.0 | 12.9 | 0.00 | 0.00 | 0.00 | 66 | 998.8 |
| 20260902003055 | 19 | 173 | 3.2 | 12.9 | 0.00 | 0.00 | 0.00 | 66 | 998.7 |
| 20260902002502 | 19 | 99 | 1.6 | 16.1 | 0.00 | 0.00 | 0.00 | 66 | 998.7 |
| 20260902002011 | 19 | 205 | 4.8 | 16.1 | 0.00 | 0.00 | 0.00 | 66 | 998.7 |
| 20260902001543 | 19 | 91 | 1.6 | 11.3 | 0.00 | 0.00 | 0.00 | 66 | 998.6 |
| 20260902001054 | 19 | 178 | 1.6 | 8.0 | 0.00 | 0.00 | 0.00 | 66 | 998.5 |
| 20260902000602 | 19 | 152 | 1.6 | 11.3 | 0.00 | 0.00 | 0.00 | 66 | 998.5 |
| 20260902000035 | 19 | 148 | 1.6 | 11.3 | 0.00 | 0.00 | 0.00 | 65 | 998.5 |
| 20260901235544 | 19 | 175 | 3.2 | 9.7 | 0.00 | 0.00 | 0.00 | 65 | 998.5 |
| 20260901235048 | 19 | 181 | 1.6 | 9.7 | 0.00 | 0.00 | 0.00 | 65 | 998.5 |
| 20260901234523 | 19 | 153 | 1.6 | 9.7 | 0.00 | 0.00 | 0.00 | 66 | 998.5 |
| 20260901234033 | 19 | 235 | 1.6 | 9.7 | 0.00 | 0.00 | 0.00 | 66 | 998.7 |
| 20260901233543 | 19 | 152 | 1.6 | 11.3 | 0.00 | 0.00 | 0.00 | 65 | 998.7 |
| 20260901233007 | 19 | 202 | 4.8 | 11.3 | 0.00 | 0.00 | 0.00 | 65 | 998.7 |
| 20260901232525 | 19 | 194 | 1.6 | 14.5 | 0.00 | 0.00 | 0.00 | 65 | 998.8 |
| 20260901232030 | 20 | 253 | 3.2 | 14.5 | 0.00 | 0.00 | 0.00 | 64 | 998.7 |
| 20260901231559 | 20 | 254 | 1.6 | 9.7 | 0.00 | 0.00 | 0.00 | 63 | 998.7 |
| 20260901231008 | 20 | 200 | 0.0 | 9.7 | 0.00 | 0.00 | 0.00 | 64 | 998.7 |
| 20260901230513 | 20 | 194 | 3.2 | 14.5 | 0.00 | 0.00 | 0.00 | 64 | 998.7 |
| 20260901230053 | 20 | 113 | 6.4 | 14.5 | 0.00 | 0.00 | 0.00 | 64 | 998.8 |
| 20260901225558 | 19 | 262 | 3.2 | 12.9 | 0.00 | 0.00 | 0.00 | 65 | 998.8 |
| 20260901225006 | 19 | 250 | 1.6 | 11.3 | 0.00 | 0.00 | 0.00 | 66 | 998.8 |
| 20260901224541 | 19 | 175 | 3.2 | 11.3 | 0.00 | 0.00 | 0.00 | 67 | 998.9 |
| 20260901224046 | 18 | 305 | 3.2 | 9.7 | 0.00 | 0.00 | 0.00 | 68 | 998.9 |
| 20260901223553 | 18 | 238 | 1.6 | 8.0 | 0.00 | 0.00 | 0.00 | 68 | 999.0 |
| 20260901223029 | 18 | 215 | 0.0 | 8.0 | 0.00 | 0.00 | 0.00 | 67 | 999.1 |
| 20260901222535 | 19 | 325 | 1.6 | 9.7 | 0.00 | 0.00 | 0.00 | 67 | 999.1 |
| 20260901222040 | 19 | 153 | 4.8 | 11.3 | 0.00 | 0.00 | 0.00 | 66 | 999.0 |
| 20260901221525 | 19 | 252 | 1.6 | 11.3 | 0.00 | 0.00 | 0.00 | 66 | 999.0 |
| 20260901221027 | 19 | 190 | 1.6 | 14.5 | 0.00 | 0.00 | 0.00 | 65 | 998.8 |
| 20260901220532 | 19 | 180 | 6.4 | 14.5 | 0.00 | 0.00 | 0.00 | 65 | 998.8 |
| 20260901220101 | 19 | 206 | 3.2 | 9.7 | 0.00 | 0.00 | 0.00 | 66 | 998.8 |
| 20260901215517 | 19 | 165 | 3.2 | 11.3 | 0.00 | 0.00 | 0.00 | 66 | 998.8 |
| 20260901215020 | 19 | 173 | 3.2 | 12.9 | 0.00 | 0.00 | 0.00 | 66 | 998.8 |
| 20260901214551 | 19 | 198 | 4.8 | 9.7 | 0.00 | 0.00 | 0.00 | 66 | 998.8 |
| 20260901214052 | 19 | 123 | 4.8 | 8.0 | 0.00 | 0.00 | 0.00 | 66 | 998.9 |
| 20260901213559 | 19 | 163 | 1.6 | 14.5 | 0.00 | 0.00 | 0.00 | 67 | 998.9 |
| 20260901213029 | 19 | 176 | 4.8 | 11.3 | 0.00 | 0.00 | 0.00 | 68 | 998.9 |
| 20260901212541 | 18 | 355 | 1.6 | 8.0 | 0.00 | 0.00 | 0.00 | 68 | 998.9 |
| 20260901212049 | 18 | 80 | 3.2 | 8.0 | 0.00 | 0.00 | 0.00 | 68 | 999.0 |
| 20260901211503 | 18 | 115 | 1.6 | 4.8 | 0.00 | 0.00 | 0.00 | 67 | 999.0 |
| 20260901211017 | 19 | 69 | 1.6 | 6.4 | 0.00 | 0.00 | 0.00 | 67 | 998.9 |
| 20260901210522 | 19 | 229 | 3.2 | 9.7 | 0.00 | 0.00 | 0.00 | 68 | 999.0 |
| 20260901210107 | 18 | 162 | 1.6 | 6.4 | 0.00 | 0.00 | 0.00 | 68 | 998.9 |
| 20260901205600 | 18 | 215 | 1.6 | 6.4 | 0.00 | 0.00 | 0.00 | 69 | 999.0 |
| 20260901205014 | 18 | 205 | 1.6 | 6.4 | 0.00 | 0.00 | 0.00 | 70 | 999.2 |
| 20260901204533 | 18 | 172 | 1.6 | 6.4 | 0.00 | 0.00 | 0.00 | 70 | 999.1 |
| 20260901204034 | 18 | 254 | 3.2 | 6.4 | 0.00 | 0.00 | 0.00 | 70 | 999.2 |
| 20260901203540 | 18 | 191 | 1.6 | 8.0 | 0.00 | 0.00 | 0.00 | 70 | 999.2 |
| 20260901203029 | 18 | 194 | 3.2 | 8.0 | 0.00 | 0.00 | 0.00 | 70 | 999.3 |
| 20260901202526 | 18 | 265 | 3.2 | 8.0 | 0.00 | 0.00 | 0.00 | 71 | 999.2 |
| 20260901202032 | 18 | 190 | 3.2 | 8.0 | 0.00 | 0.00 | 0.00 | 71 | 999.1 |
| 20260901201556 | 18 | 205 | 0.0 | 4.8 | 0.00 | 0.00 | 0.00 | 70 | 999.3 |
| 20260901201008 | 18 | 191 | 1.6 | 6.4 | 0.00 | 0.00 | 0.00 | 70 | 999.2 |
| 20260901200510 | 18 | 288 | 1.6 | 11.3 | 0.00 | 0.00 | 0.00 | 69 | 999.3 |
| 20260901200057 | 19 | 311 | 1.6 | 11.3 | 0.00 | 0.00 | 0.00 | 69 | 999.2 |
| 20260901195603 | 19 | 171 | 3.2 | 6.4 | 0.00 | 0.00 | 0.00 | 69 | 999.2 |
| 20260901195010 | 19 | 176 | 1.6 | 4.8 | 0.00 | 0.00 | 0.00 | 69 | 999.2 |
| 20260901194546 | 19 | 184 | 0.0 | 4.8 | 0.00 | 0.00 | 0.00 | 68 | 999.3 |
| 20260901194050 | 19 | 169 | 1.6 | 12.9 | 0.00 | 0.00 | 0.00 | 68 | 999.3 |
| 20260901193600 | 19 | 76 | 3.2 | 12.9 | 0.00 | 0.00 | 0.00 | 68 | 999.4 |
| 20260901193035 | 19 | 223 | 4.8 | 9.7 | 0.00 | 0.00 | 0.00 | 69 | 999.4 |
| 20260901192544 | 18 | 166 | 1.6 | 8.0 | 0.00 | 0.00 | 0.00 | 70 | 999.4 |
| 20260901192051 | 18 | 328 | 1.6 | 8.0 | 0.00 | 0.00 | 0.00 | 70 | 999.4 |
| 20260901191525 | 18 | 209 | 3.2 | 6.4 | 0.00 | 0.00 | 0.00 | 70 | 999.6 |
| 20260901191038 | 18 | 158 | 1.6 | 9.7 | 0.00 | 0.00 | 0.00 | 70 | 999.5 |
| 20260901190540 | 18 | 219 | 1.6 | 12.9 | 0.00 | 0.00 | 0.00 | 70 | 999.6 |
| 20260901190110 | 18 | 217 | 1.6 | 8.0 | 0.00 | 0.00 | 0.00 | 70 | 999.7 |
| 20260901185606 | 18 | 207 | 3.2 | 8.0 | 0.00 | 0.00 | 0.00 | 71 | 999.6 |
| 20260901185003 | 18 | 83 | 1.6 | 11.3 | 0.00 | 0.00 | 0.00 | 72 | 999.7 |
| 20260901184546 | 18 | 161 | 6.4 | 11.3 | 0.00 | 0.00 | 0.00 | 71 | 999.7 |
| 20260901184051 | 18 | 26 | 1.6 | 4.8 | 0.00 | 0.00 | 0.00 | 74 | 999.7 |
| 20260901183556 | 17 | 178 | 1.6 | 4.8 | 0.00 | 0.00 | 0.00 | 74 | 999.8 |
| 20260901183035 | 17 | 308 | 1.6 | 6.4 | 0.00 | 0.00 | 0.00 | 74 | 999.9 |
| 20260901182540 | 17 | 188 | 1.6 | 8.0 | 0.00 | 0.00 | 0.00 | 74 | 999.9 |
| 20260901182051 | 17 | 183 | 4.8 | 9.7 | 0.00 | 0.00 | 0.00 | 74 | 999.8 |
| 20260901181526 | 17 | 234 | 0.0 | 14.5 | 0.00 | 0.00 | 0.00 | 75 | 999.8 |
| 20260901181033 | 17 | 282 | 1.6 | 14.5 | 0.00 | 0.00 | 0.00 | 75 | 999.8 |
| 20260901180538 | 17 | 351 | 1.6 | 6.4 | 0.00 | 0.00 | 0.00 | 76 | 999.8 |
| 20260901180008 | 17 | 173 | 1.6 | 4.8 | 0.00 | 0.00 | 0.00 | 76 | 999.8 |
| 20260901175515 | 17 | 50 | 1.6 | 12.9 | 0.00 | 0.00 | 0.00 | 76 | 999.8 |
| 20260901175028 | 17 | 173 | 6.4 | 12.9 | 0.00 | 0.00 | 0.00 | 76 | 999.7 |
| 20260901174614 | 17 | 155 | 1.6 | 14.5 | 0.00 | 0.00 | 0.00 | 77 | 999.6 |
| 20260901174002 | 17 | 170 | 6.4 | 14.5 | 0.00 | 0.00 | 0.00 | 77 | 999.7 |
| 20260901173511 | 17 | 196 | 1.6 | 11.3 | 0.00 | 0.00 | 0.00 | 77 | 999.7 |
| 20260901173046 | 17 | 138 | 1.6 | 11.3 | 0.00 | 0.00 | 0.00 | 77 | 999.7 |
| 20260901172554 | 16 | 89 | 1.6 | 11.3 | 0.00 | 0.00 | 0.00 | 78 | 999.7 |
| 20260901172100 | 16 | 120 | 3.2 | 8.0 | 0.00 | 0.00 | 0.00 | 78 | 999.7 |
| 20260901171527 | 16 | 209 | 3.2 | 8.0 | 0.00 | 0.00 | 0.00 | 78 | 999.5 |
| 20260901171030 | 16 | 279 | 3.2 | 11.3 | 0.00 | 0.00 | 0.00 | 79 | 999.6 |
| 20260901170538 | 16 | 259 | 3.2 | 11.3 | 0.00 | 0.00 | 0.00 | 80 | 999.6 |
| 20260901170003 | 16 | 49 | 1.6 | 11.3 | 0.00 | 0.00 | 0.00 | 81 | 999.4 |
| 20260901165517 | 16 | 63 | 1.6 | 11.3 | 0.00 | 0.00 | 0.00 | 81 | 999.5 |
| 20260901165025 | 15 | 192 | 1.6 | 6.4 | 0.00 | 0.00 | 0.00 | 82 | 999.6 |
| 20260901164551 | 15 | 63 | 1.6 | 4.8 | 0.00 | 0.00 | 0.00 | 83 | 999.6 |
| 20260901164101 | 15 | 213 | 1.6 | 4.8 | 0.00 | 0.00 | 0.00 | 83 | 999.5 |
| 20260901163602 | 15 | 123 | 0.0 | 3.2 | 0.00 | 0.00 | 0.00 | 83 | 999.6 |
| 20260901163036 | 15 | 126 | 1.6 | 3.2 | 0.00 | 0.00 | 0.00 | 84 | 999.6 |
| 20260901162545 | 15 | 126 | 0.0 | 3.2 | 0.00 | 0.00 | 0.00 | 84 | 999.8 |
| 20260901162053 | 15 | 128 | 0.0 | 3.2 | 0.00 | 0.00 | 0.00 | 85 | 999.8 |
| 20260901161512 | 15 | 74 | 0.0 | 3.2 | 0.00 | 0.00 | 0.00 | 85 | 999.7 |
| 20260901161026 | 15 | 59 | 1.6 | 3.2 | 0.00 | 0.00 | 0.00 | 86 | 999.7 |
| 20260901160535 | 15 | 59 | 0.0 | 3.2 | 0.00 | 0.00 | 0.00 | 85 | 999.7 |
| 20260901160058 | 15 | 95 | 0.0 | 0.0 | 0.00 | 0.00 | 0.00 | 86 | 999.7 |
| 20260901155506 | 15 | 95 | 0.0 | 0.0 | 0.00 | 0.00 | 0.00 | 86 | 999.7 |
| 20260901155012 | 14 | 94 | 0.0 | 0.0 | 0.00 | 0.00 | 0.00 | 86 | 999.8 |
| 20260901154548 | 14 | 94 | 0.0 | 0.0 | 0.00 | 0.00 | 0.00 | 86 | 999.8 |
| 20260901154052 | 14 | 94 | 0.0 | 0.0 | 0.00 | 0.00 | 0.00 | 86 | 999.8 |
| 20260901153558 | 14 | 94 | 0.0 | 0.0 | 0.00 | 0.00 | 0.00 | 86 | 999.7 |
| 20260901153035 | 14 | 94 | 0.0 | 0.0 | 0.00 | 0.00 | 0.00 | 86 | 999.9 |
| 20260901152530 | 14 | 94 | 0.0 | 0.0 | 0.00 | 0.00 | 0.00 | 85 | 999.8 |
| 20260901152036 | 14 | 94 | 0.0 | 0.0 | 0.00 | 0.00 | 0.00 | 85 | 999.7 |
| 20260901151503 | 14 | 94 | 0.0 | 0.0 | 0.00 | 0.00 | 0.00 | 85 | 999.7 |
| 20260901151004 | 14 | 94 | 0.0 | 0.0 | 0.00 | 0.00 | 0.00 | 85 | 999.7 |
| 20260901150511 | 14 | 94 | 0.0 | 0.0 | 0.00 | 0.00 | 0.00 | 85 | 999.7 |
| 20260901150034 | 14 | 94 | 0.0 | 0.0 | 0.00 | 0.00 | 0.00 | 85 | 999.6 |
| 20260901145540 | 14 | 94 | 0.0 | 0.0 | 0.00 | 0.00 | 0.00 | 85 | 999.6 |
| 20260901145039 | 14 | 94 | 0.0 | 0.0 | 0.00 | 0.00 | 0.00 | 85 | 999.5 |
| 20260901144510 | 14 | 94 | 0.0 | 0.0 | 0.00 | 0.00 | 0.00 | 85 | 999.5 |
| 20260901144026 | 14 | 94 | 0.0 | 0.0 | 0.00 | 0.00 | 0.00 | 85 | 999.5 |
| 20260901143528 | 14 | 94 | 0.0 | 0.0 | 0.00 | 0.00 | 0.00 | 85 | 999.5 |
| 20260901143120 | 13 | 94 | 0.0 | 0.0 | 0.00 | 0.00 | 0.00 | 84 | 999.5 |
| 20260901142602 | 13 | 94 | 0.0 | 0.0 | 0.00 | 0.00 | 0.00 | 84 | 999.4 |
| 20260901142005 | 13 | 94 | 0.0 | 0.0 | 0.00 | 0.00 | 0.00 | 84 | 999.3 |
| 20260901141538 | 13 | 94 | 0.0 | 0.0 | 0.00 | 0.00 | 0.00 | 84 | 999.4 |
| 20260901141045 | 13 | 94 | 0.0 | 0.0 | 0.00 | 0.00 | 0.00 | 84 | 999.3 |
| 20260901140550 | 13 | 94 | 0.0 | 0.0 | 0.00 | 0.00 | 0.00 | 84 | 999.4 |
| 20260901140018 | 13 | 94 | 0.0 | 0.0 | 0.00 | 0.00 | 0.00 | 84 | 999.3 |
| 20260901135516 | 13 | 94 | 0.0 | 0.0 | 0.00 | 0.00 | 0.00 | 84 | 999.2 |
| 20260901135031 | 13 | 94 | 0.0 | 0.0 | 0.00 | 0.00 | 0.00 | 84 | 999.1 |
| 20260901134558 | 13 | 94 | 0.0 | 0.0 | 0.00 | 0.00 | 0.00 | 85 | 999.2 |
| 20260901134104 | 13 | 94 | 0.0 | 0.0 | 0.00 | 0.00 | 0.00 | 84 | 999.2 |
| 20260901133510 | 13 | 94 | 0.0 | 0.0 | 0.00 | 0.00 | 0.00 | 84 | 999.2 |
| 20260901133103 | 13 | 94 | 0.0 | 0.0 | 0.00 | 0.00 | 0.00 | 85 | 999.1 |
| 20260901132552 | 13 | 94 | 0.0 | 0.0 | 0.00 | 0.00 | 0.00 | 85 | 999.2 |
| 20260901132102 | 13 | 94 | 0.0 | 0.0 | 0.00 | 0.00 | 0.00 | 85 | 999.2 |
| 20260901131541 | 13 | 94 | 0.0 | 0.0 | 0.00 | 0.00 | 0.00 | 85 | 999.1 |
| 20260901131043 | 13 | 93 | 0.0 | 0.0 | 0.00 | 0.00 | 0.00 | 85 | 999.1 |
| 20260901130552 | 13 | 93 | 0.0 | 0.0 | 0.00 | 0.00 | 0.00 | 85 | 999.1 |
| 20260901130032 | 13 | 93 | 0.0 | 0.0 | 0.00 | 0.00 | 0.00 | 85 | 999.0 |
| 20260901125539 | 13 | 93 | 0.0 | 0.0 | 0.00 | 0.00 | 0.00 | 85 | 999.0 |
| 20260901125043 | 13 | 93 | 0.0 | 0.0 | 0.00 | 0.00 | 0.00 | 85 | 998.9 |
| 20260901124506 | 13 | 93 | 0.0 | 0.0 | 0.00 | 0.00 | 0.00 | 85 | 998.9 |
| 20260901124012 | 13 | 93 | 0.0 | 0.0 | 0.00 | 0.00 | 0.00 | 85 | 998.8 |
| 20260901123519 | 13 | 93 | 0.0 | 0.0 | 0.00 | 0.00 | 0.00 | 85 | 998.8 |
| 20260901123052 | 13 | 93 | 0.0 | 0.0 | 0.00 | 0.00 | 0.00 | 85 | 998.8 |
| 20260901122559 | 13 | 93 | 0.0 | 0.0 | 0.00 | 0.00 | 0.00 | 85 | 999.0 |
| 20260901122102 | 13 | 93 | 0.0 | 0.0 | 0.00 | 0.00 | 0.00 | 85 | 999.0 |
| 20260901121532 | 13 | 93 | 0.0 | 0.0 | 0.00 | 0.00 | 0.00 | 85 | 999.0 |
| 20260901121040 | 13 | 93 | 0.0 | 0.0 | 0.00 | 0.00 | 0.00 | 85 | 999.0 |
| 20260901120546 | 13 | 93 | 0.0 | 0.0 | 0.00 | 0.00 | 0.00 | 85 | 998.7 |
| 20260901120010 | 13 | 93 | 0.0 | 0.0 | 0.00 | 0.00 | 0.00 | 85 | 998.7 |
| 20260901115524 | 13 | 93 | 0.0 | 0.0 | 0.00 | 0.00 | 0.00 | 85 | 998.7 |
| 20260901115029 | 13 | 93 | 0.0 | 0.0 | 0.00 | 0.00 | 0.00 | 85 | 998.7 |
| 20260901114601 | 13 | 93 | 0.0 | 0.0 | 0.00 | 0.00 | 0.00 | 84 | 998.7 |
| 20260901114009 | 13 | 93 | 0.0 | 0.0 | 0.00 | 0.00 | 0.00 | 84 | 998.7 |
| 20260901113517 | 13 | 93 | 0.0 | 0.0 | 0.00 | 0.00 | 0.00 | 84 | 998.6 |
| 20260901113032 | 13 | 93 | 0.0 | 0.0 | 0.00 | 0.00 | 0.00 | 83 | 998.7 |
| 20260901112535 | 13 | 93 | 0.0 | 0.0 | 0.00 | 0.00 | 0.00 | 83 | 998.6 |
| 20260901112042 | 13 | 93 | 0.0 | 0.0 | 0.00 | 0.00 | 0.00 | 83 | 998.6 |
| 20260901111510 | 13 | 93 | 0.0 | 0.0 | 0.00 | 0.00 | 0.00 | 83 | 998.6 |
| 20260901111018 | 13 | 46 | 0.0 | 0.0 | 0.00 | 0.00 | 0.00 | 82 | 998.5 |
| 20260901110525 | 13 | 46 | 0.0 | 0.0 | 0.00 | 0.00 | 0.00 | 82 | 998.5 |
| 20260901110057 | 13 | 46 | 0.0 | 0.0 | 0.00 | 0.00 | 0.00 | 82 | 998.4 |
| 20260901105551 | 13 | 46 | 0.0 | 0.0 | 0.00 | 0.00 | 0.00 | 82 | 998.3 |
| 20260901105057 | 13 | 46 | 0.0 | 1.6 | 0.00 | 0.00 | 0.00 | 82 | 998.3 |
| 20260901104544 | 13 | 46 | 0.0 | 3.2 | 0.00 | 0.00 | 0.00 | 82 | 998.3 |
| 20260901104042 | 13 | 46 | 0.0 | 1.6 | 0.00 | 0.00 | 0.00 | 82 | 998.3 |
| 20260901103543 | 13 | 46 | 0.0 | 1.6 | 0.00 | 0.00 | 0.00 | 82 | 998.3 |
| 20260901103022 | 13 | 46 | 0.0 | 6.4 | 0.00 | 0.00 | 0.00 | 83 | 998.3 |
| 20260901102517 | 13 | 46 | 0.0 | 3.2 | 0.00 | 0.00 | 0.00 | 82 | 998.2 |
| 20260901102029 | 13 | 42 | 0.0 | 3.2 | 0.00 | 0.00 | 0.00 | 82 | 998.2 |
| 20260901101559 | 13 | 42 | 1.6 | 4.8 | 0.00 | 0.00 | 0.00 | 82 | 998.2 |
| 20260901101003 | 14 | 44 | 1.6 | 4.8 | 0.00 | 0.00 | 0.00 | 82 | 998.3 |
| 20260901100509 | 14 | 32 | 1.6 | 4.8 | 0.00 | 0.00 | 0.00 | 82 | 998.2 |